Hourly Data Report for December 08, 2004

TORONTO CITY
ONTARIO

43°40'00.000" N
79°24'00.000" W
112.50 m
6158355
71508
XTO

Download Data

Hourly Data (December 2004)
Hourly Data Report for December 8, 2004
TIME
LST
Temp Definition
°C
Dew Point Definition
°C
Rel Hum Definition
%
Precip. Amount Definition
mm

Wind Dir Definition
10's deg

Wind Spd Definition
km/h
Visibility Definition
km
Stn Press Definition
kPa
Hmdx Definition


Wind Chill Definition


Weather Definition


00:00 5.3 0.8 73   LegendMM LegendMM LegendMM 98.51     LegendNANA
01:00 4.5 1.3 80   LegendMM LegendMM LegendMM 98.69     LegendNANA
02:00 4.3 1.1 80   LegendMM LegendMM LegendMM 98.88     LegendNANA
03:00 4.5 1.6 81   LegendMM LegendMM LegendMM 99.06     LegendNANA
04:00 4.9 1.9 81   LegendMM LegendMM LegendMM 99.18     LegendNANA
05:00 5.1 2.1 81   LegendMM LegendMM LegendMM 99.34     LegendNANA
06:00 5.5 2.1 79   LegendMM LegendMM LegendMM 99.48     LegendNANA
07:00 5.8 2.1 77   LegendMM LegendMM LegendMM 99.61     LegendNANA
08:00 5.8 1.7 75   LegendMM LegendMM LegendMM 99.71     LegendNANA
09:00 5.8 1.8 75   LegendMM LegendMM LegendMM 99.90     LegendNANA
10:00 5.9 1.6 74   LegendMM LegendMM LegendMM 100.08     LegendNANA
11:00 6.4 1.4 70   LegendMM LegendMM LegendMM 100.25     LegendNANA
12:00 6.7 2.1 72   LegendMM LegendMM LegendMM 100.34     LegendNANA
13:00 7.7 1.0 63   LegendMM LegendMM LegendMM 100.38     LegendNANA
14:00 6.8 1.2 67   LegendMM LegendMM LegendMM 100.41     LegendNANA
15:00 6.9 1.7 69   LegendMM LegendMM LegendMM 100.46     LegendNANA
16:00 6.1 1.9 74   LegendMM LegendMM LegendMM 100.47     LegendNANA
17:00 5.9 1.9 75   LegendMM LegendMM LegendMM 100.59     LegendNANA
18:00 5.5 1.6 76   LegendMM LegendMM LegendMM 100.65     LegendNANA
19:00 5.2 1.1 75   LegendMM LegendMM LegendMM 100.66     LegendNANA
20:00 5.1 1.7 79   LegendMM LegendMM LegendMM 100.71     LegendNANA
21:00 4.8 2.0 82   LegendMM LegendMM LegendMM 100.74     LegendNANA
22:00 4.8 2.0 82   LegendMM LegendMM LegendMM 100.71     LegendNANA
23:00 4.9 2.2 83   LegendMM LegendMM LegendMM 100.75     LegendNANA

Notes on Data Quality.

Legend

  • E = Estimated
  • M = Missing
  • NA = Not Available*
  • [empty] = Indicates an unobserved value
Date modified: